QPF
0.00 0.00 0.00 0.00 0.00 0.00 0.00 0.00 0.00 0.00 0.00 0.00 0.00 0.00 0.00 0.00 0.00 0.00 0.01 0.02 0.02 0.03 0.03 0.02 0.02 0.01 0.02 0.03 0.03 0.04 0.05 0.04 0.04 0.05 0.04 0.02 0.02 0.01 0.01 0.00 0.00 0.00 0.00
0.00 0.00 0.00 0.00 0.00 0.00 0.00 0.00 0.00 0.00 0.00 0.00 0.00 0.00 0.00 0.00 0.00 0.00 0.01 0.01 0.02 0.03 0.04 0.04 0.03 0.02 0.01 0.02 0.02 0.04 0.05 0.04 0.03 0.03 0.04 0.02 0.01 0.01 0.01 0.00 0.00 0.00 0.00
0.00 0.00 0.00 0.00 0.00 0.00 0.00 0.00 0.00 0.00 0.00 0.00 0.00 0.01 0.01 0.00 0.00 0.00 0.00 0.01 0.01 0.01 0.03 0.04 0.04 0.03 0.02 0.02 0.02 0.03 0.03 0.03 0.02 0.02 0.03 0.02 0.01 0.01 0.00 0.00 0.00 0.00 0.00
0.01 0.02 0.03 0.03 0.01 0.00 0.00 0.00 0.00 0.00 0.01 0.01 0.01 0.01 0.01 0.00 0.00 0.00 0.00 0.00 0.01 0.01 0.02 0.03 0.03 0.03 0.03 0.02 0.02 0.02 0.02 0.02 0.02 0.02 0.02 0.02 0.01 0.01 0.00 0.00 0.00 0.00 0.00
0.03 0.06 0.11 0.10 0.04 0.02 0.02 0.01 0.01 0.01 0.02 0.03 0.03 0.03 0.01 0.00 0.00 0.00 0.00 0.00 0.00 0.01 0.02 0.01 0.02 0.03 0.04 0.04 0.03 0.02 0.02 0.02 0.02 0.02 0.02 0.01 0.01 0.01 0.00 0.00 0.00 0.00 0.00
0.07 0.13 0.19 0.18 0.11 0.08 0.06 0.04 0.03 0.03 0.04 0.05 0.03 0.02 0.01 0.00 0.00 0.00 0.00 0.00 0.00 0.00 0.00 0.00 0.01 0.02 0.02 0.02 0.03 0.03 0.02 0.02 0.02 0.02 0.01 0.02 0.01 0.01 0.01 0.00 0.00 0.00 0.00
0.10 0.18 0.21 0.24 0.21 0.17 0.15 0.09 0.07 0.05 0.04 0.04 0.05 0.05 0.02 0.00 0.00 0.00 0.00 0.00 0.00 0.00 0.00 0.00 0.01 0.01 0.01 0.00 0.01 0.02 0.03 0.02 0.01 0.01 0.01 0.01 0.01 0.01 0.01 0.01 0.01 0.00 0.00
0.12 0.13 0.19 0.23 0.24 0.22 0.22 0.16 0.13 0.11 0.08 0.05 0.07 0.08 0.05 0.02 0.01 0.01 0.00 0.00 0.00 0.00 0.00 0.00 0.00 0.00 0.00 0.00 0.00 0.00 0.01 0.02 0.01 0.01 0.01 0.01 0.01 0.01 0.01 0.01 0.01 0.01 0.01
0.14 0.14 0.14 0.18 0.20 0.19 0.22 0.22 0.17 0.16 0.15 0.10 0.07 0.08 0.08 0.07 0.05 0.02 0.01 0.01 0.01 0.00 0.00 0.00 0.00 0.00 0.00 0.00 0.00 0.00 0.00 0.00 0.01 0.01 0.00 0.00 0.01 0.01 0.01 0.01 0.01 0.01 0.00
0.13 0.12 0.11 0.11 0.12 0.13 0.16 0.17 0.15 0.15 0.15 0.14 0.11 0.10 0.09 0.09 0.08 0.05 0.02 0.00 0.01 0.01 0.00 0.00 0.00 0.00 0.00 0.00 0.00 0.00 0.00 0.00 0.00 0.00 0.00 0.01 0.01 0.01 0.01 0.01 0.01 0.01 0.00
0.08 0.08 0.07 0.07 0.08 0.08 0.09 0.10 0.10 0.10 0.11 0.13 0.14 0.13 0.12 0.11 0.09 0.08 0.05 0.02 0.01 0.01 0.01 0.00 0.00 0.00 0.00 0.00 0.00 0.00 0.00 0.00 0.00 0.00 0.00 0.00 0.01 0.01 0.02 0.01 0.01 0.01 0.01
0.07 0.05 0.04 0.04 0.03 0.03 0.03 0.04 0.06 0.06 0.07 0.09 0.11 0.12 0.13 0.13 0.12 0.11 0.08 0.05 0.03 0.01 0.00 0.00 0.00 0.00 0.00 0.00 0.00 0.00 0.00 0.00 0.00 0.00 0.00 0.00 0.00 0.01 0.01 0.02 0.02 0.01 0.01
0.05 0.04 0.02 0.02 0.02 0.02 0.02 0.02 0.02 0.03 0.04 0.06 0.08 0.11 0.12 0.13 0.14 0.12 0.10 0.07 0.05 0.02 0.01 0.00 0.00 0.00 0.00 0.00 0.00 0.00 0.00 0.00 0.00 0.00 0.00 0.00 0.00 0.00 0.01 0.02 0.02 0.01 0.01
0.03 0.02 0.02 0.01 0.01 0.01 0.01 0.01 0.01 0.01 0.02 0.04 0.05 0.07 0.09 0.10 0.10 0.09 0.09 0.10 0.09 0.06 0.03 0.01 0.00 0.00 0.00 0.00 0.00 0.00 0.00 0.00 0.00 0.00 0.00 0.00 0.00 0.00 0.00 0.00 0.01 0.01 0.01
0.01 0.01 0.01 0.01 0.00 0.00 0.00 0.00 0.00 0.01 0.01 0.02 0.03 0.03 0.04 0.05 0.07 0.07 0.09 0.10 0.11 0.10 0.08 0.05 0.02 0.00 0.00 0.00 0.00 0.00 0.00 0.00 0.00 0.00 0.00 0.00 0.00 0.00 0.00 0.00 0.00 0.00 0.00
0.00 0.00 0.00 0.00 0.00 0.00 0.00 0.00 0.00 0.00 0.01 0.01 0.02 0.02 0.03 0.04 0.06 0.08 0.10 0.12 0.12 0.11 0.11 0.08 0.04 0.01 0.00 0.00 0.00 0.00 0.00 0.00 0.00 0.00 0.00 0.00 0.00 0.00 0.00 0.00 0.00 0.00 0.00
0.00 0.00 0.00 0.00 0.00 0.00 0.00 0.00 0.00 0.00 0.00 0.01 0.01 0.02 0.03 0.04 0.05 0.06 0.07 0.09 0.09 0.11 0.10 0.11 0.07 0.03 0.01 0.01 0.01 0.00 0.00 0.00 0.00 0.00 0.00 0.00 0.00 0.00 0.00 0.00 0.00 0.00 0.00
0.00 0.00 0.00 0.00 0.00 0.00 0.00 0.00 0.00 0.00 0.00 0.01 0.01 0.01 0.02 0.03 0.04 0.05 0.06 0.07 0.08 0.10 0.11 0.12 0.11 0.07 0.05 0.04 0.03 0.02 0.01 0.01 0.00 0.00 0.00 0.00 0.00 0.00 0.00 0.00 0.00 0.00 0.00
0.01 0.01 0.01 0.00 0.00 0.00 0.00 0.00 0.00 0.00 0.00 0.00 0.00 0.01 0.01 0.02 0.03 0.05 0.07 0.08 0.08 0.09 0.13 0.16 0.17 0.14 0.09 0.07 0.05 0.04 0.02 0.01 0.01 0.01 0.00 0.00 0.00 0.00 0.00 0.00 0.00 0.00 0.00
0.01 0.01 0.01 0.01 0.01 0.00 0.01 0.01 0.01 0.01 0.01 0.00 0.00 0.00 0.01 0.01 0.03 0.05 0.07 0.09 0.11 0.11 0.13 0.17 0.20 0.17 0.13 0.10 0.07 0.06 0.05 0.03 0.02 0.01 0.01 0.00 0.00 0.00 0.00 0.00 0.00 0.00 0.00
0.02 0.02 0.02 0.02 0.02 0.02 0.02 0.02 0.01 0.01 0.01 0.01 0.00 0.00 0.00 0.01 0.02 0.04 0.07 0.09 0.12 0.15 0.18 0.21 0.25 0.26 0.22 0.18 0.14 0.11 0.09 0.07 0.04 0.02 0.01 0.01 0.00 0.00 0.00 0.00 0.00 0.00 0.00
0.02 0.03 0.03 0.03 0.03 0.03 0.03 0.02 0.01 0.02 0.02 0.02 0.01 0.01 0.00 0.01 0.01 0.01 0.01 0.02 0.05 0.11 0.18 0.20 0.22 0.23 0.24 0.24 0.22 0.19 0.14 0.09 0.06 0.04 0.02 0.01 0.01 0.00 0.00 0.00 0.00 0.00 0.00
0.02 0.02 0.03 0.04 0.05 0.04 0.04 0.02 0.02 0.02 0.03 0.03 0.02 0.01 0.00 0.00 0.01 0.01 0.01 0.00 0.01 0.02 0.05 0.09 0.14 0.17 0.18 0.19 0.19 0.18 0.16 0.14 0.11 0.07 0.05 0.03 0.01 0.01 0.00 0.00 0.00 0.00 0.00
0.02 0.02 0.02 0.02 0.03 0.03 0.03 0.02 0.02 0.03 0.04 0.03 0.02 0.01 0.01 0.01 0.01 0.01 0.01 0.01 0.01 0.01 0.01 0.03 0.05 0.07 0.09 0.12 0.13 0.14 0.16 0.15 0.12 0.09 0.07 0.05 0.03 0.02 0.01 0.00 0.00 0.00 0.00
0.01 0.01 0.01 0.01 0.01 0.01 0.02 0.02 0.03 0.06 0.07 0.07 0.04 0.02 0.02 0.01 0.02 0.01 0.00 0.01 0.02 0.01 0.00 0.01 0.01 0.01 0.01 0.03 0.06 0.10 0.12 0.13 0.13 0.11 0.10 0.07 0.05 0.04 0.02 0.01 0.00 0.00 0.00
0.00 0.00 0.01 0.01 0.01 0.00 0.01 0.02 0.03 0.06 0.08 0.09 0.06 0.04 0.06 0.06 0.06 0.03 0.01 0.03 0.04 0.03 0.00 0.00 0.01 0.01 0.01 0.01 0.02 0.05 0.09 0.11 0.11 0.13 0.12 0.09 0.08 0.07 0.05 0.03 0.02 0.01 0.01
MSLP
1014.60 1014.87 1015.09 1015.26 1015.37 1015.43 1015.45 1015.45 1015.42 1015.37 1015.32 1015.26 1015.22 1015.21 1015.24 1015.33 1015.50 1015.73 1016.00 1016.28 1016.55 1016.77 1016.91 1016.99 1016.99 1016.97 1016.95 1016.95 1017.00 1017.10 1017.23 1017.37 1017.50 1017.58 1017.62 1017.63 1017.63 1017.65 1017.70 1017.80 1017.93 1018.06 1018.13
1014.32 1014.58 1014.82 1015.03 1015.20 1015.34 1015.44 1015.50 1015.52 1015.51 1015.47 1015.41 1015.36 1015.34 1015.36 1015.46 1015.63 1015.86 1016.13 1016.40 1016.66 1016.86 1016.99 1017.05 1017.07 1017.06 1017.06 1017.10 1017.17 1017.28 1017.40 1017.51 1017.59 1017.63 1017.62 1017.59 1017.58 1017.61 1017.69 1017.83 1018.00 1018.16 1018.25
1014.08 1014.32 1014.58 1014.83 1015.08 1015.31 1015.50 1015.65 1015.74 1015.77 1015.75 1015.70 1015.64 1015.60 1015.60 1015.67 1015.81 1016.00 1016.24 1016.47 1016.68 1016.85 1016.95 1017.01 1017.04 1017.06 1017.11 1017.19 1017.30 1017.43 1017.56 1017.66 1017.70 1017.69 1017.63 1017.56 1017.52 1017.54 1017.64 1017.81 1018.02 1018.20 1018.30
1013.89 1014.11 1014.38 1014.67 1014.98 1015.29 1015.58 1015.81 1015.98 1016.07 1016.09 1016.05 1015.99 1015.93 1015.90 1015.93 1016.01 1016.15 1016.31 1016.49 1016.64 1016.75 1016.82 1016.87 1016.91 1016.97 1017.07 1017.21 1017.38 1017.55 1017.71 1017.80 1017.82 1017.76 1017.65 1017.54 1017.46 1017.46 1017.56 1017.74 1017.96 1018.17 1018.29
1013.76 1013.96 1014.21 1014.52 1014.87 1015.24 1015.60 1015.91 1016.15 1016.31 1016.37 1016.36 1016.31 1016.24 1016.19 1016.18 1016.21 1016.28 1016.37 1016.46 1016.54 1016.59 1016.63 1016.66 1016.71 1016.80 1016.95 1017.15 1017.39 1017.62 1017.80 1017.91 1017.92 1017.83 1017.69 1017.53 1017.41 1017.37 1017.45 1017.62 1017.84 1018.06 1018.19
1013.70 1013.85 1014.07 1014.36 1014.71 1015.11 1015.51 1015.87 1016.17 1016.39 1016.50 1016.54 1016.51 1016.46 1016.40 1016.37 1016.36 1016.38 1016.40 1016.43 1016.43 1016.43 1016.41 1016.42 1016.47 1016.59 1016.79 1017.05 1017.35 1017.63 1017.86 1017.99 1018.00 1017.90 1017.72 1017.53 1017.36 1017.29 1017.33 1017.47 1017.68 1017.89 1018.03
1013.69 1013.79 1013.94 1014.18 1014.50 1014.87 1015.27 1015.66 1015.99 1016.25 1016.42 1016.51 1016.53 1016.52 1016.50 1016.47 1016.46 1016.45 1016.43 1016.41 1016.36 1016.30 1016.24 1016.22 1016.26 1016.39 1016.62 1016.92 1017.26 1017.60 1017.87 1018.03 1018.06 1017.96 1017.77 1017.55 1017.35 1017.23 1017.22 1017.33 1017.50 1017.69 1017.83
1013.74 1013.76 1013.83 1013.99 1014.23 1014.54 1014.90 1015.27 1015.62 1015.91 1016.12 1016.27 1016.37 1016.42 1016.45 1016.47 1016.49 1016.49 1016.47 1016.42 1016.33 1016.23 1016.14 1016.09 1016.11 1016.23 1016.47 1016.79 1017.16 1017.53 1017.84 1018.04 1018.10 1018.01 1017.83 1017.59 1017.37 1017.21 1017.16 1017.22 1017.35 1017.51 1017.63
1013.81 1013.76 1013.74 1013.79 1013.93 1014.16 1014.45 1014.77 1015.10 1015.41 1015.66 1015.87 1016.04 1016.17 1016.29 1016.38 1016.45 1016.49 1016.49 1016.45 1016.36 1016.24 1016.12 1016.03 1016.03 1016.13 1016.35 1016.67 1017.05 1017.44 1017.77 1018.01 1018.10 1018.05 1017.89 1017.67 1017.44 1017.26 1017.17 1017.18 1017.26 1017.38 1017.47
1013.87 1013.76 1013.65 1013.61 1013.64 1013.78 1013.99 1014.25 1014.55 1014.85 1015.13 1015.39 1015.62 1015.83 1016.03 1016.20 1016.35 1016.45 1016.50 1016.48 1016.40 1016.28 1016.15 1016.04 1016.00 1016.07 1016.25 1016.54 1016.91 1017.30 1017.66 1017.92 1018.07 1018.07 1017.95 1017.76 1017.55 1017.37 1017.26 1017.23 1017.26 1017.33 1017.39
1013.88 1013.73 1013.56 1013.44 1013.40 1013.45 1013.58 1013.79 1014.05 1014.33 1014.62 1014.91 1015.19 1015.46 1015.72 1015.97 1016.18 1016.35 1016.45 1016.47 1016.42 1016.31 1016.18 1016.05 1015.98 1016.01 1016.15 1016.40 1016.74 1017.12 1017.48 1017.78 1017.97 1018.04 1017.99 1017.86 1017.69 1017.53 1017.41 1017.35 1017.35 1017.38 1017.40
1013.81 1013.64 1013.46 1013.30 1013.22 1013.21 1013.30 1013.46 1013.68 1013.93 1014.21 1014.50 1014.80 1015.10 1015.40 1015.69 1015.95 1016.16 1016.31 1016.38 1016.36 1016.28 1016.15 1016.01 1015.92 1015.91 1016.00 1016.21 1016.51 1016.87 1017.24 1017.57 1017.82 1017.95 1017.99 1017.93 1017.82 1017.70 1017.60 1017.54 1017.52 1017.51 1017.50
1013.63 1013.49 1013.32 1013.18 1013.09 1013.08 1013.15 1013.28 1013.47 1013.70 1013.95 1014.22 1014.50 1014.79 1015.09 1015.38 1015.66 1015.89 1016.07 1016.17 1016.19 1016.14 1016.03 1015.90 1015.79 1015.75 1015.81 1015.97 1016.23 1016.57 1016.94 1017.29 1017.59 1017.80 1017.91 1017.94 1017.91 1017.84 1017.78 1017.73 1017.70 1017.69 1017.66
1013.35 1013.27 1013.15 1013.06 1013.02 1013.03 1013.11 1013.24 1013.42 1013.61 1013.83 1014.05 1014.29 1014.53 1014.79 1015.05 1015.31 1015.55 1015.73 1015.86 1015.91 1015.89 1015.81 1015.70 1015.60 1015.55 1015.57 1015.70 1015.92 1016.23 1016.59 1016.96 1017.29 1017.57 1017.76 1017.87 1017.92 1017.92 1017.90 1017.88 1017.86 1017.85 1017.83
1013.01 1012.99 1012.95 1012.94 1012.96 1013.03 1013.15 1013.30 1013.47 1013.64 1013.81 1013.98 1014.15 1014.32 1014.51 1014.72 1014.93 1015.14 1015.32 1015.46 1015.54 1015.56 1015.52 1015.45 1015.36 1015.31 1015.32 1015.42 1015.61 1015.89 1016.23 1016.60 1016.96 1017.28 1017.53 1017.71 1017.83 1017.89 1017.92 1017.93 1017.94 1017.95 1017.95
1012.66 1012.70 1012.74 1012.81 1012.91 1013.04 1013.21 1013.38 1013.55 1013.70 1013.83 1013.94 1014.04 1014.13 1014.24 1014.38 1014.53 1014.71 1014.88 1015.03 1015.14 1015.20 1015.21 1015.18 1015.13 1015.10 1015.11 1015.19 1015.35 1015.59 1015.90 1016.25 1016.61 1016.95 1017.23 1017.46 1017.63 1017.74 1017.81 1017.86 1017.90 1017.93 1017.96
1012.36 1012.44 1012.54 1012.67 1012.83 1013.03 1013.23 1013.43 1013.60 1013.74 1013.83 1013.89 1013.92 1013.94 1013.98 1014.05 1014.15 1014.29 1014.45 1014.61 1014.75 1014.86 1014.92 1014.95 1014.94 1014.94 1014.95 1015.02 1015.15 1015.36 1015.63 1015.94 1016.27 1016.60 1016.89 1017.13 1017.32 1017.46 1017.56 1017.64 1017.71 1017.77 1017.84
1012.18 1012.26 1012.39 1012.55 1012.74 1012.96 1013.18 1013.39 1013.56 1013.69 1013.75 1013.77 1013.76 1013.73 1013.72 1013.74 1013.80 1013.92 1014.07 1014.25 1014.42 1014.57 1014.69 1014.77 1014.82 1014.84 1014.87 1014.94 1015.04 1015.20 1015.42 1015.68 1015.97 1016.26 1016.53 1016.76 1016.95 1017.09 1017.20 1017.30 1017.38 1017.47 1017.57
1012.15 1012.20 1012.31 1012.45 1012.64 1012.85 1013.06 1013.26 1013.42 1013.53 1013.58 1013.58 1013.55 1013.50 1013.46 1013.46 1013.51 1013.62 1013.77 1013.96 1014.16 1014.35 1014.52 1014.65 1014.74 1014.80 1014.85 1014.90 1014.98 1015.11 1015.27 1015.47 1015.70 1015.94 1016.16 1016.36 1016.53 1016.66 1016.77 1016.87 1016.96 1017.07 1017.19
1012.28 1012.27 1012.31 1012.41 1012.54 1012.71 1012.89 1013.06 1013.20 1013.29 1013.34 1013.34 1013.30 1013.26 1013.22 1013.22 1013.27 1013.38 1013.54 1013.74 1013.97 1014.19 1014.39 1014.55 1014.67 1014.76 1014.82 1014.88 1014.94 1015.03 1015.15 1015.29 1015.46 1015.64 1015.81 1015.97 1016.10 1016.21 1016.31 1016.39 1016.49 1016.60 1016.74
1012.56 1012.47 1012.42 1012.43 1012.48 1012.58 1012.70 1012.82 1012.93 1013.01 1013.05 1013.06 1013.05 1013.03 1013.01 1013.03 1013.09 1013.21 1013.37 1013.58 1013.81 1014.03 1014.25 1014.43 1014.57 1014.68 1014.75 1014.81 1014.87 1014.93 1015.02 1015.12 1015.24 1015.37 1015.49 1015.60 1015.70 1015.79 1015.86 1015.93 1016.02 1016.13 1016.27
1012.95 1012.77 1012.63 1012.53 1012.49 1012.50 1012.55 1012.61 1012.68 1012.74 1012.79 1012.81 1012.82 1012.83 1012.85 1012.89 1012.97 1013.09 1013.25 1013.44 1013.65 1013.87 1014.08 1014.26 1014.40 1014.51 1014.60 1014.66 1014.72 1014.78 1014.85 1014.93 1015.03 1015.12 1015.21 1015.29 1015.36 1015.42 1015.47 1015.53 1015.60 1015.70 1015.83
1013.41 1013.15 1012.92 1012.73 1012.60 1012.52 1012.48 1012.48 1012.51 1012.55 1012.59 1012.63 1012.66 1012.70 1012.75 1012.81 1012.89 1013.01 1013.15 1013.32 1013.50 1013.68 1013.86 1014.01 1014.15 1014.26 1014.35 1014.43 1014.50 1014.57 1014.65 1014.73 1014.82 1014.90 1014.98 1015.04 1015.09 1015.13 1015.16 1015.20 1015.25 1015.33 1015.44
1013.91 1013.58 1013.29 1013.03 1012.82 1012.66 1012.55 1012.49 1012.47 1012.48 1012.51 1012.55 1012.59 1012.65 1012.71 1012.79 1012.87 1012.97 1013.09 1013.22 1013.35 1013.48 1013.61 1013.73 1013.84 1013.94 1014.03 1014.13 1014.22 1014.32 1014.43 1014.53 1014.63 1014.72 1014.80 1014.86 1014.89 1014.92 1014.93 1014.95 1014.98 1015.03 1015.11
1014.41 1014.06 1013.73 1013.43 1013.16 1012.94 1012.77 1012.65 1012.58 1012.55 1012.55 1012.58 1012.63 1012.69 1012.76 1012.83 1012.91 1012.99 1013.07 1013.15 1013.23 1013.30 1013.38 1013.46 1013.53 1013.62 1013.72 1013.83 1013.95 1014.08 1014.22 1014.35 1014.48 1014.59 1014.67 1014.73 1014.76 1014.77 1014.77 1014.76 1014.76 1014.78 1014.83
1014.91 1014.57 1014.23 1013.91 1013.62 1013.35 1013.13 1012.96 1012.84 1012.76 1012.73 1012.73 1012.76 1012.81 1012.87 1012.93 1012.99 1013.05 1013.10 1013.14 1013.16 1013.19 1013.22 1013.25 1013.30 1013.37 1013.46 1013.58 1013.72 1013.89 1014.06 1014.23 1014.38 1014.51 1014.60 1014.66 1014.68 1014.67 1014.64 1014.60 1014.57 1014.55 1014.56
Thickness
5764 5762 5760 5756 5756 5754 5752 5751 5752 5752 5751 5751 5750 5749 5748 5746 5745 5744 5743 5740 5740 5740 5741 5742 5742 5743 5743 5743 5743 5743 5743 5743 5743 5743 5743 5744 5745 5746 5748 5749 5751 5752 5753
5762 5759 5759 5755 5754 5753 5752 5751 5751 5749 5749 5748 5746 5744 5743 5743 5741 5740 5740 5738 5736 5736 5737 5738 5738 5739 5740 5740 5740 5740 5740 5740 5740 5740 5741 5741 5742 5743 5744 5746 5748 5749 5751
5760 5757 5757 5755 5753 5750 5750 5748 5748 5747 5746 5744 5742 5741 5740 5739 5738 5737 5736 5735 5734 5732 5732 5733 5733 5734 5735 5736 5737 5737 5737 5737 5737 5738 5738 5739 5739 5740 5741 5743 5745 5746 5748
5758 5756 5754 5752 5750 5748 5747 5745 5744 5743 5742 5740 5740 5738 5737 5734 5735 5734 5733 5732 5731 5730 5728 5727 5728 5729 5730 5731 5732 5732 5733 5734 5734 5735 5735 5736 5736 5737 5738 5740 5741 5743 5745
5756 5753 5750 5748 5747 5744 5743 5742 5741 5740 5738 5735 5735 5733 5734 5732 5731 5729 5730 5729 5727 5725 5725 5722 5722 5723 5724 5725 5726 5727 5728 5729 5730 5731 5732 5732 5733 5734 5735 5737 5738 5740 5742
5752 5750 5746 5744 5743 5740 5738 5738 5737 5734 5733 5731 5731 5729 5729 5728 5727 5726 5726 5724 5724 5722 5722 5721 5721 5719 5719 5719 5721 5722 5723 5725 5725 5727 5728 5729 5730 5731 5732 5733 5735 5737 5739
5748 5746 5744 5741 5738 5736 5734 5734 5733 5730 5728 5729 5724 5720 5722 5724 5725 5723 5722 5721 5721 5718 5716 5716 5717 5717 5717 5714 5715 5716 5718 5719 5720 5722 5723 5725 5726 5727 5729 5730 5732 5734 5735
5744 5743 5741 5738 5736 5733 5731 5730 5728 5725 5724 5724 5719 5712 5711 5714 5716 5720 5719 5717 5718 5716 5715 5713 5714 5712 5713 5714 5711 5710 5711 5713 5715 5717 5718 5720 5722 5723 5725 5727 5728 5730 5732
5739 5737 5737 5736 5734 5732 5729 5728 5726 5722 5718 5719 5720 5714 5708 5706 5711 5715 5717 5715 5714 5713 5712 5712 5711 5710 5709 5709 5708 5706 5706 5707 5709 5711 5713 5715 5717 5719 5721 5723 5725 5726 5728
5734 5733 5733 5733 5732 5730 5727 5726 5725 5721 5717 5713 5713 5713 5713 5710 5703 5703 5708 5711 5711 5709 5709 5708 5707 5707 5706 5704 5702 5701 5701 5702 5704 5706 5708 5710 5712 5715 5717 5719 5721 5722 5724
5728 5728 5729 5729 5728 5727 5725 5724 5722 5719 5718 5713 5710 5707 5705 5703 5703 5698 5695 5700 5702 5705 5706 5706 5705 5703 5702 5701 5699 5698 5697 5697 5699 5700 5702 5705 5707 5709 5712 5714 5716 5718 5720
5720 5722 5723 5724 5724 5723 5722 5721 5719 5716 5715 5712 5709 5707 5704 5700 5697 5695 5692 5691 5693 5698 5701 5701 5701 5700 5698 5697 5696 5694 5693 5693 5694 5695 5697 5699 5701 5704 5706 5709 5711 5714 5716
5712 5716 5718 5719 5719 5719 5718 5716 5714 5712 5711 5708 5706 5705 5704 5702 5700 5696 5692 5690 5689 5692 5694 5697 5697 5697 5696 5694 5694 5691 5689 5689 5689 5690 5692 5694 5696 5698 5701 5703 5705 5708 5710
5709 5711 5713 5714 5714 5713 5712 5711 5709 5707 5706 5703 5701 5699 5698 5698 5696 5694 5691 5686 5682 5683 5686 5691 5695 5695 5694 5693 5692 5688 5688 5686 5686 5686 5687 5689 5691 5693 5695 5697 5699 5701 5703
5705 5707 5707 5708 5707 5707 5706 5704 5702 5700 5699 5698 5696 5695 5693 5693 5692 5691 5690 5686 5680 5676 5678 5684 5687 5691 5690 5690 5689 5687 5689 5685 5684 5683 5683 5684 5686 5687 5689 5691 5693 5695 5697
5701 5702 5702 5703 5702 5701 5699 5697 5696 5694 5692 5691 5690 5690 5689 5689 5687 5687 5685 5683 5680 5676 5674 5680 5680 5685 5686 5686 5685 5686 5688 5684 5681 5680 5680 5681 5682 5683 5684 5686 5688 5689 5691
5698 5698 5698 5697 5696 5695 5694 5691 5690 5688 5687 5686 5686 5685 5684 5684 5682 5681 5681 5679 5677 5674 5670 5674 5675 5678 5679 5681 5682 5682 5684 5682 5681 5679 5678 5678 5678 5679 5680 5682 5683 5684 5686
5693 5693 5693 5692 5691 5689 5688 5687 5684 5683 5681 5681 5680 5680 5680 5680 5678 5678 5676 5675 5674 5672 5669 5669 5670 5671 5673 5676 5679 5679 5680 5680 5681 5678 5677 5676 5676 5676 5677 5678 5679 5680 5681
5686 5686 5686 5686 5685 5684 5682 5680 5680 5679 5677 5677 5677 5676 5676 5675 5674 5674 5673 5671 5671 5670 5668 5666 5666 5666 5667 5668 5671 5673 5675 5676 5677 5677 5674 5674 5674 5674 5675 5676 5676 5677 5678
5680 5680 5681 5681 5679 5678 5678 5676 5676 5675 5674 5674 5673 5673 5673 5672 5670 5670 5669 5669 5667 5666 5664 5663 5662 5661 5661 5661 5663 5665 5668 5671 5673 5675 5674 5674 5674 5673 5674 5674 5675 5675 5676
5674 5674 5675 5674 5674 5673 5673 5673 5672 5670 5670 5669 5669 5669 5668 5666 5664 5664 5665 5665 5663 5662 5661 5659 5658 5657 5656 5656 5657 5660 5660 5663 5666 5670 5672 5673 5674 5674 5675 5674 5674 5674 5674
5665 5666 5667 5668 5668 5668 5666 5662 5663 5664 5664 5664 5663 5663 5662 5660 5658 5656 5656 5656 5657 5658 5657 5656 5655 5654 5654 5654 5654 5653 5654 5655 5657 5663 5664 5668 5671 5673 5676 5677 5677 5675 5673
5657 5659 5660 5661 5662 5661 5657 5656 5655 5657 5659 5659 5659 5658 5657 5656 5653 5657 5653 5650 5651 5650 5651 5654 5654 5653 5652 5652 5650 5648 5648 5650 5651 5655 5655 5659 5665 5668 5672 5675 5673 5673 5671
5649 5650 5651 5653 5653 5653 5651 5651 5651 5653 5654 5654 5653 5654 5654 5653 5651 5651 5651 5651 5651 5650 5649 5650 5651 5652 5651 5650 5648 5647 5645 5645 5647 5648 5648 5651 5657 5660 5665 5668 5669 5668 5667
5642 5642 5642 5643 5644 5645 5643 5644 5645 5648 5648 5648 5648 5647 5648 5648 5642 5640 5643 5645 5645 5645 5643 5642 5642 5643 5642 5643 5643 5642 5641 5640 5640 5642 5642 5644 5650 5653 5657 5662 5664 5662 5661
5633 5634 5633 5634 5635 5636 5635 5637 5638 5642 5641 5641 5640 5640 5636 5637 5634 5633 5637 5639 5638 5640 5640 5640 5639 5639 5640 5640 5638 5639 5639 5637 5637 5638 5640 5640 5642 5643 5647 5653 5655 5655 5655